TimeCST,TemperatureF,Dew PointF,Humidity,Sea Level PressureIn,VisibilityMPH,Wind Direction,Wind SpeedMPH,Gust SpeedMPH,PrecipitationIn,Events,Conditions,WindDirDegrees,DateUTC
6:00 AM,68,62,77,29.85,12,South,4.6,,,,Clear,180,2013-01-14 12:00:00
6:00 AM,68.0,62.6,83,29.83,-9999.0,South,4.6,-,N/A,,Clear,180,2013-01-14 12:00:00
7:00 AM,69.8,62.6,78,29.86,-9999.0,NE,4.6,-,N/A,,Clear,40,2013-01-14 13:00:00
8:00 AM,80.6,62.6,54,29.87,-9999.0,NNE,3.5,-,N/A,,Clear,30,2013-01-14 14:00:00
9:00 AM,85,63,37,29.88,12,ENE,10.4,,,,Clear,60,2013-01-14 15:00:00
9:00 AM,86.0,62.6,45,29.87,-9999.0,ENE,10.4,-,N/A,,Clear,60,2013-01-14 15:00:00
10:00 AM,87.8,62.6,43,29.86,-9999.0,ENE,15.0,-,N/A,,Clear,70,2013-01-14 16:00:00
11:00 AM,89.6,62.6,40,29.85,-9999.0,ENE,17.3,-,N/A,,Clear,60,2013-01-14 17:00:00
12:00 PM,90,62,30,29.85,12,ENE,12.7,,,,Scattered Clouds,60,2013-01-14 18:00:00
12:00 PM,89.6,62.6,40,29.83,6.2,ENE,12.7,-,N/A,,Partly Cloudy,60,2013-01-14 18:00:00
1:00 PM,91.4,62.6,38,29.80,6.2,ENE,17.3,-,N/A,,Partly Cloudy,60,2013-01-14 19:00:00
2:00 PM,91.4,60.8,36,29.78,6.2,ENE,11.5,-,N/A,,Partly Cloudy,70,2013-01-14 20:00:00
3:00 PM,92,63,28,29.78,12,NE,15.0,,,,Scattered Clouds,50,2013-01-14 21:00:00
3:00 PM,91.4,62.6,38,29.77,6.2,NE,15.0,-,N/A,,Partly Cloudy,50,2013-01-14 21:00:00
4:00 PM,89.6,62.6,40,29.77,6.2,ENE,17.3,-,N/A,,Partly Cloudy,60,2013-01-14 22:00:00
5:00 PM,87.8,64.4,46,29.79,-9999.0,ENE,18.4,-,N/A,,Clear,60,2013-01-14 23:00:00
6:00 PM,83,65,46,29.82,12,ENE,13.8,,,,,70,2013-01-15 00:00:00
6:00 PM,82.4,66.2,58,29.80,-9999.0,ENE,13.8,-,N/A,,Clear,70,2013-01-15 00:00:00
7:00 PM,80.6,64.4,58,29.82,-9999.0,ENE,15.0,-,N/A,,Clear,70,2013-01-15 01:00:00
8:00 PM,80.6,62.6,54,29.84,-9999.0,East,12.7,-,N/A,,Clear,80,2013-01-15 02:00:00